Time,TemperatureF,DewpointF,PressureIn,WindDirection,WindDirectionDegrees,WindSpeedMPH,WindSpeedGustMPH,Humidity,HourlyPrecipIn,Conditions,Clouds,dailyrainin,SolarRadiationWatts/m^2,SoftwareType,DateUTC
2013-07-31 00:03:00,64.9,62.2,30.07,ESE,116,0.0,2.0,91,0.00,,,0.00,0,Wunderground v.1.15,2013-07-31 05:03:00,
2013-07-31 00:08:00,64.9,62.2,30.07,ESE,117,2.0,3.0,91,0.00,,,0.00,0,Wunderground v.1.15,2013-07-31 05:08:00,
2013-07-31 00:14:00,64.9,62.2,30.07,SE,132,3.0,3.0,91,0.00,,,0.00,0,Wunderground v.1.15,2013-07-31 05:14:00,
2013-07-31 00:19:00,64.9,62.2,30.06,SSE,157,1.0,4.0,91,0.00,,,0.00,0,Wunderground v.1.15,2013-07-31 05:19:00,
2013-07-31 00:25:00,64.8,62.1,30.06,SSE,156,2.0,2.0,91,0.00,,,0.00,0,Wunderground v.1.15,2013-07-31 05:25:00,
2013-07-31 00:30:00,64.8,62.1,30.06,SSE,156,2.0,2.0,91,0.00,,,0.00,0,Wunderground v.1.15,2013-07-31 05:30:00,
2013-07-31 00:36:00,64.8,62.1,30.06,SSE,168,2.0,4.0,91,0.00,,,0.00,0,Wunderground v.1.15,2013-07-31 05:36:00,
2013-07-31 00:42:00,64.8,62.1,30.06,SSE,168,1.0,3.0,91,0.00,,,0.00,0,Wunderground v.1.15,2013-07-31 05:42:00,
2013-07-31 00:47:00,64.8,62.4,30.05,ESE,118,3.0,3.0,92,0.00,,,0.00,0,Wunderground v.1.15,2013-07-31 05:47:00,
2013-07-31 00:53:00,64.8,62.4,30.05,SE,140,1.0,5.0,92,0.00,,,0.00,0,Wunderground v.1.15,2013-07-31 05:53:00,
2013-07-31 00:59:00,64.7,62.0,30.05,SE,130,4.0,6.0,91,0.00,,,0.00,0,Wunderground v.1.15,2013-07-31 05:59:00,
2013-07-31 01:04:00,64.6,61.9,30.05,South,175,2.0,4.0,91,0.00,,,0.00,0,Wunderground v.1.15,2013-07-31 06:04:00,
2013-07-31 01:09:00,64.5,62.1,30.04,SE,144,1.0,4.0,92,0.00,,,0.00,0,Wunderground v.1.15,2013-07-31 06:09:00,
2013-07-31 01:15:00,64.4,62.0,30.04,SSE,165,1.0,5.0,92,0.00,,,0.00,0,Wunderground v.1.15,2013-07-31 06:15:00,
2013-07-31 01:20:00,64.3,61.9,30.04,SSE,167,1.0,5.0,92,0.00,,,0.00,0,Wunderground v.1.15,2013-07-31 06:20:00,
2013-07-31 01:25:00,64.3,61.9,30.04,SSE,167,0.0,3.0,92,0.00,,,0.00,0,Wunderground v.1.15,2013-07-31 06:25:00,
2013-07-31 01:31:00,64.2,61.8,30.04,ESE,115,0.0,1.0,92,0.00,,,0.00,0,Wunderground v.1.15,2013-07-31 06:31:00,
2013-07-31 01:36:00,64.1,62.0,30.04,South,169,1.0,1.0,93,0.00,,,0.00,0,Wunderground v.1.15,2013-07-31 06:36:00,
2013-07-31 01:41:00,64.1,62.0,30.04,SSE,165,0.0,1.0,93,0.00,,,0.00,0,Wunderground v.1.15,2013-07-31 06:41:00,
2013-07-31 01:47:00,64.0,61.9,30.04,SSE,159,0.0,4.0,93,0.00,,,0.00,0,Wunderground v.1.15,2013-07-31 06:47:00,
2013-07-31 01:52:00,64.0,61.9,30.04,SSE,159,0.0,1.0,93,0.00,,,0.00,0,Wunderground v.1.15,2013-07-31 06:52:00,
2013-07-31 01:57:00,64.0,61.9,30.04,SSE,166,4.0,4.0,93,0.00,,,0.00,0,Wunderground v.1.15,2013-07-31 06:57:00,
2013-07-31 02:02:00,64.0,61.9,30.04,SE,126,0.0,2.0,93,0.00,,,0.00,0,Wunderground v.1.15,2013-07-31 07:02:00,
2013-07-31 02:07:00,63.9,61.8,30.04,SE,136,0.0,5.0,93,0.00,,,0.00,0,Wunderground v.1.15,2013-07-31 07:07:00,
2013-07-31 02:12:00,63.9,61.8,30.03,SE,136,2.0,3.0,93,0.00,,,0.00,0,Wunderground v.1.15,2013-07-31 07:12:00,
2013-07-31 02:17:00,63.9,61.8,30.03,South,170,1.0,4.0,93,0.00,,,0.00,0,Wunderground v.1.15,2013-07-31 07:17:00,
2013-07-31 02:22:00,63.9,61.8,30.04,SSE,161,1.0,3.0,93,0.00,,,0.00,0,Wunderground v.1.15,2013-07-31 07:22:00,
2013-07-31 02:27:00,63.9,61.8,30.04,SSE,161,0.0,3.0,93,0.00,,,0.00,0,Wunderground v.1.15,2013-07-31 07:27:00,
2013-07-31 02:32:00,63.9,61.8,30.04,SSE,161,0.0,1.0,93,0.00,,,0.00,0,Wunderground v.1.15,2013-07-31 07:32:00,
2013-07-31 02:37:00,63.9,61.8,30.05,SSE,161,0.0,1.0,93,0.00,,,0.00,0,Wunderground v.1.15,2013-07-31 07:37:00,
2013-07-31 02:42:00,63.9,61.8,30.05,SSE,161,0.0,0.0,93,0.00,,,0.00,0,Wunderground v.1.15,2013-07-31 07:42:00,
2013-07-31 02:47:00,63.9,61.8,30.05,SSE,161,0.0,0.0,93,0.00,,,0.00,0,Wunderground v.1.15,2013-07-31 07:47:00,
2013-07-31 02:53:00,63.9,61.8,30.05,SSE,161,0.0,0.0,93,0.00,,,0.00,0,Wunderground v.1.15,2013-07-31 07:53:00,
2013-07-31 02:58:00,63.9,61.8,30.05,SSE,161,0.0,0.0,93,0.00,,,0.00,0,Wunderground v.1.15,2013-07-31 07:58:00,
2013-07-31 03:03:00,63.9,62.1,30.05,SSE,161,0.0,0.0,94,0.00,,,0.00,0,Wunderground v.1.15,2013-07-31 08:03:00,
2013-07-31 03:08:00,63.9,62.1,30.05,SSE,161,0.0,0.0,94,0.00,,,0.00,0,Wunderground v.1.15,2013-07-31 08:08:00,
2013-07-31 03:13:00,63.9,62.1,30.05,SSE,161,0.0,0.0,94,0.00,,,0.00,0,Wunderground v.1.15,2013-07-31 08:13:00,
2013-07-31 03:18:00,63.9,61.8,30.05,SSE,161,0.0,1.0,93,0.00,,,0.00,0,Wunderground v.1.15,2013-07-31 08:18:00,
2013-07-31 03:23:00,63.9,61.8,30.05,SSE,161,0.0,2.0,93,0.00,,,0.00,0,Wunderground v.1.15,2013-07-31 08:23:00,
2013-07-31 03:28:00,63.8,61.7,30.05,SSE,161,0.0,2.0,93,0.00,,,0.00,0,Wunderground v.1.15,2013-07-31 08:28:00,
2013-07-31 03:33:00,63.8,62.0,30.05,SSE,161,0.0,1.0,94,0.00,,,0.00,0,Wunderground v.1.15,2013-07-31 08:33:00,
2013-07-31 03:38:00,63.8,62.0,30.04,SSE,161,0.0,1.0,94,0.00,,,0.00,0,Wunderground v.1.15,2013-07-31 08:38:00,
2013-07-31 03:43:00,63.8,62.0,30.04,SSE,161,0.0,0.0,94,0.00,,,0.00,0,Wunderground v.1.15,2013-07-31 08:43:00,
2013-07-31 03:48:00,63.8,62.0,30.04,SSE,161,0.0,1.0,94,0.00,,,0.00,0,Wunderground v.1.15,2013-07-31 08:48:00,
2013-07-31 03:53:00,63.8,62.0,30.04,SSE,161,0.0,0.0,94,0.00,,,0.00,0,Wunderground v.1.15,2013-07-31 08:53:00,
2013-07-31 03:58:00,63.7,61.9,30.04,SSE,161,0.0,1.0,94,0.00,,,0.00,0,Wunderground v.1.15,2013-07-31 08:58:00,
2013-07-31 04:03:00,63.7,61.9,30.04,SSE,161,0.0,0.0,94,0.00,,,0.00,0,Wunderground v.1.15,2013-07-31 09:03:00,
2013-07-31 04:08:00,63.7,61.9,30.04,SSE,161,0.0,0.0,94,0.00,,,0.00,0,Wunderground v.1.15,2013-07-31 09:08:00,
2013-07-31 04:13:00,63.7,61.9,30.03,SSE,161,0.0,0.0,94,0.00,,,0.00,0,Wunderground v.1.15,2013-07-31 09:13:00,
2013-07-31 04:18:00,63.7,61.9,30.03,SSE,161,0.0,0.0,94,0.00,,,0.00,0,Wunderground v.1.15,2013-07-31 09:18:00,
2013-07-31 04:23:00,63.6,61.8,30.03,SSE,161,0.0,0.0,94,0.00,,,0.00,0,Wunderground v.1.15,2013-07-31 09:23:00,
2013-07-31 04:28:00,63.6,61.8,30.04,SSE,161,0.0,0.0,94,0.00,,,0.00,0,Wunderground v.1.15,2013-07-31 09:28:00,
2013-07-31 04:33:00,63.7,61.9,30.04,SSE,161,0.0,0.0,94,0.00,,,0.00,0,Wunderground v.1.15,2013-07-31 09:33:00,
2013-07-31 04:38:00,63.7,61.9,30.04,SSE,161,0.0,0.0,94,0.00,,,0.00,0,Wunderground v.1.15,2013-07-31 09:38:00,
2013-07-31 04:43:00,63.6,61.8,30.05,SSE,161,0.0,0.0,94,0.00,,,0.00,0,Wunderground v.1.15,2013-07-31 09:43:00,
2013-07-31 04:48:00,63.7,61.9,30.04,SSE,161,0.0,0.0,94,0.00,,,0.00,0,Wunderground v.1.15,2013-07-31 09:48:00,
2013-07-31 04:53:00,63.7,61.9,30.04,SSE,161,0.0,0.0,94,0.00,,,0.00,0,Wunderground v.1.15,2013-07-31 09:53:00,
2013-07-31 04:58:00,63.7,61.9,30.03,SSE,161,0.0,0.0,94,0.00,,,0.00,0,Wunderground v.1.15,2013-07-31 09:58:00,
2013-07-31 05:03:00,63.6,61.8,30.04,SSE,161,0.0,0.0,94,0.00,,,0.00,0,Wunderground v.1.15,2013-07-31 10:03:00,
2013-07-31 05:08:00,63.7,61.9,30.04,SSE,161,0.0,0.0,94,0.00,,,0.00,0,Wunderground v.1.15,2013-07-31 10:08:00,
2013-07-31 05:13:00,63.7,61.9,30.04,SSE,161,0.0,0.0,94,0.00,,,0.00,0,Wunderground v.1.15,2013-07-31 10:13:00,
2013-07-31 05:18:00,63.7,61.9,30.05,SSE,161,0.0,0.0,94,0.00,,,0.00,0,Wunderground v.1.15,2013-07-31 10:18:00,
2013-07-31 05:23:00,63.6,61.8,30.04,SSE,161,0.0,0.0,94,0.00,,,0.00,0,Wunderground v.1.15,2013-07-31 10:23:00,
2013-07-31 05:28:00,63.7,61.9,30.05,SSE,161,0.0,0.0,94,0.00,,,0.00,0,Wunderground v.1.15,2013-07-31 10:28:00,
2013-07-31 05:33:00,63.7,61.9,30.05,SSE,161,0.0,0.0,94,0.00,,,0.00,0,Wunderground v.1.15,2013-07-31 10:33:00,
2013-07-31 05:38:00,63.7,61.9,30.04,SSE,161,0.0,0.0,94,0.00,,,0.00,0,Wunderground v.1.15,2013-07-31 10:38:00,
2013-07-31 05:43:00,63.7,61.9,30.04,SSE,161,0.0,0.0,94,0.00,,,0.00,0,Wunderground v.1.15,2013-07-31 10:43:00,
2013-07-31 05:49:00,63.7,61.9,30.04,SSE,161,0.0,0.0,94,0.00,,,0.00,0,Wunderground v.1.15,2013-07-31 10:49:00,
2013-07-31 05:54:00,63.7,61.9,30.04,SSE,161,0.0,0.0,94,0.00,,,0.00,0,Wunderground v.1.15,2013-07-31 10:54:00,
2013-07-31 05:59:00,63.7,62.2,30.04,SSE,161,0.0,0.0,95,0.00,,,0.00,5,Wunderground v.1.15,2013-07-31 10:59:00,
2013-07-31 06:04:00,63.7,62.2,30.04,SSE,161,0.0,0.0,95,0.00,,,0.00,9,Wunderground v.1.15,2013-07-31 11:04:00,
2013-07-31 06:09:00,63.7,61.9,30.04,SSE,161,0.0,0.0,94,0.00,,,0.00,14,Wunderground v.1.15,2013-07-31 11:09:00,
2013-07-31 06:14:00,63.7,61.9,30.05,SSE,161,0.0,0.0,94,0.00,,,0.00,16,Wunderground v.1.15,2013-07-31 11:14:00,
2013-07-31 06:19:00,63.8,62.3,30.05,SSE,161,0.0,0.0,95,0.00,,,0.00,16,Wunderground v.1.15,2013-07-31 11:19:00,
2013-07-31 06:24:00,63.8,62.3,30.04,SSE,161,0.0,0.0,95,0.00,,,0.00,18,Wunderground v.1.15,2013-07-31 11:24:00,
2013-07-31 06:29:00,63.8,62.3,30.04,SSE,161,0.0,0.0,95,0.00,,,0.00,21,Wunderground v.1.15,2013-07-31 11:29:00,
2013-07-31 06:34:00,63.9,62.4,30.04,SSE,161,0.0,0.0,95,0.00,,,0.00,26,Wunderground v.1.15,2013-07-31 11:34:00,
2013-07-31 06:39:00,63.9,62.4,30.04,SSE,161,0.0,0.0,95,0.00,,,0.00,40,Wunderground v.1.15,2013-07-31 11:39:00,
2013-07-31 06:44:00,64.0,62.5,30.04,SSE,161,0.0,0.0,95,0.00,,,0.00,58,Wunderground v.1.15,2013-07-31 11:44:00,
2013-07-31 06:49:00,64.1,62.6,30.04,SSE,161,0.0,0.0,95,0.00,,,0.00,46,Wunderground v.1.15,2013-07-31 11:49:00,
2013-07-31 06:54:00,64.2,62.7,30.05,SSE,161,0.0,2.0,95,0.00,,,0.00,49,Wunderground v.1.15,2013-07-31 11:54:00,
2013-07-31 06:59:00,64.3,62.8,30.05,SSE,161,0.0,2.0,95,0.00,,,0.00,54,Wunderground v.1.15,2013-07-31 11:59:00,
2013-07-31 07:04:00,64.4,62.9,30.05,SSE,161,0.0,0.0,95,0.00,,,0.00,46,Wunderground v.1.15,2013-07-31 12:04:00,
2013-07-31 07:09:00,64.4,62.6,30.04,SSE,161,1.0,3.0,94,0.00,,,0.00,46,Wunderground v.1.15,2013-07-31 12:09:00,
2013-07-31 07:14:00,64.4,62.6,30.04,North,9,0.0,2.0,94,0.00,,,0.00,91,Wunderground v.1.15,2013-07-31 12:14:00,
2013-07-31 07:19:00,64.5,62.7,30.05,North,9,1.0,3.0,94,0.00,,,0.00,86,Wunderground v.1.15,2013-07-31 12:19:00,
2013-07-31 07:24:00,64.5,62.4,30.05,North,5,0.0,4.0,93,0.00,,,0.00,60,Wunderground v.1.15,2013-07-31 12:24:00,
2013-07-31 07:29:00,64.6,62.5,30.05,North,5,0.0,4.0,93,0.00,,,0.00,69,Wunderground v.1.15,2013-07-31 12:29:00,
2013-07-31 07:34:00,64.7,62.6,30.05,North,5,0.0,1.0,93,0.00,,,0.00,81,Wunderground v.1.15,2013-07-31 12:34:00,
2013-07-31 07:39:00,64.8,62.7,30.05,North,5,0.0,2.0,93,0.00,,,0.00,70,Wunderground v.1.15,2013-07-31 12:39:00,
2013-07-31 07:44:00,64.9,62.5,30.04,North,5,1.0,2.0,92,0.00,,,0.00,102,Wunderground v.1.15,2013-07-31 12:44:00,
2013-07-31 07:49:00,65.0,62.6,30.04,North,5,0.0,3.0,92,0.00,,,0.00,199,Wunderground v.1.15,2013-07-31 12:49:00,
2013-07-31 07:54:00,65.2,62.8,30.05,North,5,0.0,1.0,92,0.00,,,0.00,160,Wunderground v.1.15,2013-07-31 12:54:00,
2013-07-31 07:59:00,65.5,62.8,30.05,North,5,0.0,2.0,91,0.00,,,0.00,149,Wunderground v.1.15,2013-07-31 12:59:00,
2013-07-31 08:04:00,65.6,62.6,30.04,North,355,2.0,5.0,90,0.00,,,0.00,118,Wunderground v.1.15,2013-07-31 13:04:00,
2013-07-31 08:09:00,65.8,62.5,30.04,North,355,0.0,5.0,89,0.00,,,0.00,93,Wunderground v.1.15,2013-07-31 13:09:00,
2013-07-31 08:14:00,66.0,62.7,30.04,North,355,2.0,2.0,89,0.00,,,0.00,105,Wunderground v.1.15,2013-07-31 13:14:00,
2013-07-31 08:19:00,66.1,62.8,30.04,NNW,332,3.0,6.0,89,0.00,,,0.00,120,Wunderground v.1.15,2013-07-31 13:19:00,
2013-07-31 08:24:00,66.3,63.0,30.04,NNW,332,0.0,3.0,89,0.00,,,0.00,158,Wunderground v.1.15,2013-07-31 13:24:00,
2013-07-31 08:29:00,66.5,63.2,30.04,NNW,332,0.0,3.0,89,0.00,,,0.00,213,Wunderground v.1.15,2013-07-31 13:29:00,
2013-07-31 08:34:00,66.8,63.1,30.04,NNW,342,1.0,5.0,88,0.00,,,0.00,352,Wunderground v.1.15,2013-07-31 13:34:00,
2013-07-31 08:39:00,67.3,63.3,30.04,WNW,294,4.0,6.0,87,0.00,,,0.00,432,Wunderground v.1.15,2013-07-31 13:39:00,
2013-07-31 08:44:00,67.8,63.5,30.04,NW,312,3.0,6.0,86,0.00,,,0.00,276,Wunderground v.1.15,2013-07-31 13:44:00,
2013-07-31 08:49:00,68.0,63.3,30.04,WNW,302,3.0,6.0,85,0.00,,,0.00,246,Wunderground v.1.15,2013-07-31 13:49:00,
2013-07-31 08:54:00,68.1,63.4,30.04,WNW,302,0.0,5.0,85,0.00,,,0.00,311,Wunderground v.1.15,2013-07-31 13:54:00,
2013-07-31 08:59:00,68.3,63.6,30.04,WNW,302,1.0,5.0,85,0.00,,,0.00,301,Wunderground v.1.15,2013-07-31 13:59:00,
2013-07-31 09:04:00,68.7,64.0,30.04,WNW,302,1.0,3.0,85,0.00,,,0.00,717,Wunderground v.1.15,2013-07-31 14:04:00,
2013-07-31 09:09:00,69.3,64.3,30.04,North,351,1.0,4.0,84,0.00,,,0.00,791,Wunderground v.1.15,2013-07-31 14:09:00,
2013-07-31 09:14:00,69.7,64.0,30.04,NW,314,1.0,7.0,82,0.00,,,0.00,278,Wunderground v.1.15,2013-07-31 14:14:00,
2013-07-31 09:19:00,69.8,64.4,30.03,NNW,327,3.0,7.0,83,0.00,,,0.00,413,Wunderground v.1.15,2013-07-31 14:19:00,
2013-07-31 09:24:00,69.9,64.5,30.03,NW,306,3.0,5.0,83,0.00,,,0.00,399,Wunderground v.1.15,2013-07-31 14:24:00,
2013-07-31 09:29:00,70.2,64.4,30.02,NW,317,5.0,6.0,82,0.00,,,0.00,323,Wunderground v.1.15,2013-07-31 14:29:00,
2013-07-31 09:34:00,70.3,64.5,30.02,NNE,32,3.0,5.0,82,0.00,,,0.00,650,Wunderground v.1.15,2013-07-31 14:34:00,
2013-07-31 09:39:00,70.6,65.2,30.02,North,360,0.0,5.0,83,0.00,,,0.00,664,Wunderground v.1.15,2013-07-31 14:39:00,
2013-07-31 09:44:00,71.0,64.9,30.03,NNE,17,1.0,5.0,81,0.00,,,0.00,810,Wunderground v.1.15,2013-07-31 14:44:00,
2013-07-31 09:49:00,71.2,65.1,30.02,NNE,13,2.0,5.0,81,0.00,,,0.00,283,Wunderground v.1.15,2013-07-31 14:49:00,
2013-07-31 09:54:00,71.2,65.1,30.02,North,5,2.0,3.0,81,0.00,,,0.00,202,Wunderground v.1.15,2013-07-31 14:54:00,
2013-07-31 09:59:00,71.2,65.1,30.02,North,5,1.0,3.0,81,0.00,,,0.00,751,Wunderground v.1.15,2013-07-31 14:59:00,
2013-07-31 10:04:00,71.4,65.3,30.01,North,5,0.0,2.0,81,0.00,,,0.00,747,Wunderground v.1.15,2013-07-31 15:04:00,
2013-07-31 10:09:00,71.9,65.8,30.01,North,5,2.0,2.0,81,0.00,,,0.00,795,Wunderground v.1.15,2013-07-31 15:09:00,
2013-07-31 10:14:00,72.3,65.8,30.01,North,5,1.0,2.0,80,0.00,,,0.00,796,Wunderground v.1.15,2013-07-31 15:14:00,
2013-07-31 10:19:00,72.5,65.6,30.02,North,351,3.0,3.0,79,0.00,,,0.00,302,Wunderground v.1.15,2013-07-31 15:19:00,
2013-07-31 10:24:00,72.5,65.2,30.01,North,351,0.0,2.0,78,0.00,,,0.00,244,Wunderground v.1.15,2013-07-31 15:24:00,
2013-07-31 10:29:00,72.6,65.0,30.01,North,351,0.0,2.0,77,0.00,,,0.00,236,Wunderground v.1.15,2013-07-31 15:29:00,
2013-07-31 10:34:00,72.7,65.4,30.02,North,351,0.0,1.0,78,0.00,,,0.00,281,Wunderground v.1.15,2013-07-31 15:34:00,
2013-07-31 10:39:00,72.7,65.1,30.01,North,351,0.0,1.0,77,0.00,,,0.00,299,Wunderground v.1.15,2013-07-31 15:39:00,
2013-07-31 10:44:00,73.0,65.7,30.01,ENE,76,1.0,3.0,78,0.00,,,0.00,812,Wunderground v.1.15,2013-07-31 15:44:00,
2013-07-31 10:49:00,73.5,66.6,30.02,ENE,65,4.0,4.0,79,0.00,,,0.00,461,Wunderground v.1.15,2013-07-31 15:49:00,
2013-07-31 10:54:00,73.8,66.9,30.01,ENE,67,3.0,4.0,79,0.00,,,0.00,724,Wunderground v.1.15,2013-07-31 15:54:00,
2013-07-31 10:59:00,74.1,66.0,30.01,North,360,2.0,5.0,76,0.00,,,0.00,1032,Wunderground v.1.15,2013-07-31 15:59:00,
2013-07-31 11:04:00,74.3,66.2,30.01,NE,35,1.0,5.0,76,0.00,,,0.00,1048,Wunderground v.1.15,2013-07-31 16:04:00,
2013-07-31 11:10:00,74.8,67.1,30.01,NE,35,0.0,1.0,77,0.00,,,0.00,1067,Wunderground v.1.15,2013-07-31 16:10:00,
2013-07-31 11:15:00,75.0,66.1,30.01,NE,34,0.0,4.0,74,0.00,,,0.00,348,Wunderground v.1.15,2013-07-31 16:15:00,
2013-07-31 11:20:00,74.8,65.2,30.01,NNE,30,0.0,1.0,72,0.00,,,0.00,429,Wunderground v.1.15,2013-07-31 16:20:00,
2013-07-31 11:25:00,74.9,66.1,30.01,SW,232,3.0,3.0,74,0.00,,,0.00,547,Wunderground v.1.15,2013-07-31 16:25:00,
2013-07-31 11:30:00,75.3,66.4,30.01,SW,232,1.0,2.0,74,0.00,,,0.00,283,Wunderground v.1.15,2013-07-31 16:30:00,
2013-07-31 11:35:00,75.2,65.9,30.01,WNW,288,1.0,4.0,73,0.00,,,0.00,221,Wunderground v.1.15,2013-07-31 16:35:00,
2013-07-31 11:40:00,75.1,66.2,30.01,WNW,288,0.0,1.0,74,0.00,,,0.00,448,Wunderground v.1.15,2013-07-31 16:40:00,
2013-07-31 11:45:00,75.1,65.5,30.01,WNW,288,0.0,4.0,72,0.00,,,0.00,373,Wunderground v.1.15,2013-07-31 16:45:00,
2013-07-31 11:50:00,75.2,65.6,30.01,WNW,288,1.0,1.0,72,0.00,,,0.00,1076,Wunderground v.1.15,2013-07-31 16:50:00,
2013-07-31 11:55:00,75.0,66.5,30.01,SSE,168,0.0,4.0,75,0.00,,,0.00,285,Wunderground v.1.15,2013-07-31 16:55:00,
2013-07-31 12:00:00,74.3,66.6,30.00,SSE,167,2.0,2.0,77,0.00,,,0.00,234,Wunderground v.1.15,2013-07-31 17:00:00,
2013-07-31 12:05:00,73.8,66.1,30.00,ENE,65,1.0,4.0,77,0.00,,,0.00,338,Wunderground v.1.15,2013-07-31 17:05:00,
2013-07-31 12:10:00,73.4,66.1,30.00,SSE,164,2.0,2.0,78,0.00,,,0.00,327,Wunderground v.1.15,2013-07-31 17:10:00,
2013-07-31 12:15:00,73.3,66.4,30.00,SSE,157,0.0,4.0,79,0.00,,,0.00,378,Wunderground v.1.15,2013-07-31 17:15:00,
2013-07-31 12:20:00,73.4,66.9,30.00,SSE,166,2.0,3.0,80,0.00,,,0.00,425,Wunderground v.1.15,2013-07-31 17:20:00,
2013-07-31 12:25:00,73.6,67.0,29.99,SSE,166,3.0,4.0,80,0.00,,,0.00,937,Wunderground v.1.15,2013-07-31 17:25:00,
2013-07-31 12:30:00,74.2,67.6,29.99,South,190,0.0,2.0,80,0.00,,,0.00,833,Wunderground v.1.15,2013-07-31 17:30:00,
2013-07-31 12:35:00,74.8,67.8,29.99,South,178,3.0,5.0,79,0.00,,,0.00,944,Wunderground v.1.15,2013-07-31 17:35:00,
2013-07-31 12:40:00,75.1,67.8,29.99,South,186,3.0,5.0,78,0.00,,,0.00,527,Wunderground v.1.15,2013-07-31 17:40:00,
2013-07-31 12:45:00,74.9,66.4,29.99,South,174,2.0,5.0,75,0.00,,,0.00,605,Wunderground v.1.15,2013-07-31 17:45:00,
2013-07-31 12:50:00,74.7,66.6,29.99,SSE,165,3.0,4.0,76,0.00,,,0.00,332,Wunderground v.1.15,2013-07-31 17:50:00,
2013-07-31 12:55:00,74.6,66.9,29.99,SSE,157,2.0,4.0,77,0.00,,,0.00,369,Wunderground v.1.15,2013-07-31 17:55:00,
2013-07-31 13:00:00,74.6,67.3,29.99,SSE,163,1.0,2.0,78,0.00,,,0.00,522,Wunderground v.1.15,2013-07-31 18:00:00,
2013-07-31 13:05:00,74.8,67.5,29.99,South,187,1.0,7.0,78,0.00,,,0.00,432,Wunderground v.1.15,2013-07-31 18:05:00,
2013-07-31 13:10:00,74.7,67.0,29.99,SSE,154,4.0,4.0,77,0.00,,,0.00,403,Wunderground v.1.15,2013-07-31 18:10:00,
2013-07-31 13:15:00,75.1,68.1,29.99,South,171,2.0,6.0,79,0.00,,,0.00,1118,Wunderground v.1.15,2013-07-31 18:15:00,
2013-07-31 13:20:00,75.9,68.5,29.99,South,177,0.0,2.0,78,0.00,,,0.00,1144,Wunderground v.1.15,2013-07-31 18:20:00,
2013-07-31 13:25:00,76.0,67.1,29.98,South,180,0.0,6.0,74,0.00,,,0.00,1100,Wunderground v.1.15,2013-07-31 18:25:00,
2013-07-31 13:30:00,76.5,67.6,29.98,SSE,151,4.0,5.0,74,0.00,,,0.00,345,Wunderground v.1.15,2013-07-31 18:30:00,
2013-07-31 13:35:00,76.9,68.8,29.98,South,169,3.0,5.0,76,0.00,,,0.00,1056,Wunderground v.1.15,2013-07-31 18:35:00,
2013-07-31 13:40:00,77.0,67.7,29.98,South,170,4.0,5.0,73,0.00,,,0.00,970,Wunderground v.1.15,2013-07-31 18:40:00,
2013-07-31 13:45:00,76.6,68.1,29.97,South,169,0.0,5.0,75,0.00,,,0.00,977,Wunderground v.1.15,2013-07-31 18:45:00,
2013-07-31 13:50:00,76.7,68.2,29.97,SW,230,2.0,4.0,75,0.00,,,0.00,984,Wunderground v.1.15,2013-07-31 18:50:00,
2013-07-31 13:55:00,77.1,67.4,29.97,SSE,167,0.0,5.0,72,0.00,,,0.00,1085,Wunderground v.1.15,2013-07-31 18:55:00,
2013-07-31 16:09:00,77.6,66.2,29.94,WSW,242,2.0,8.0,68,0.00,,,0.00,236,Wunderground v.1.15,2013-07-31 21:09:00,
2013-07-31 16:14:00,77.1,65.7,29.95,WNW,288,7.0,8.0,68,0.00,,,0.00,221,Wunderground v.1.15,2013-07-31 21:14:00,
2013-07-31 16:19:00,76.9,65.5,29.94,SSW,208,2.0,9.0,68,0.00,,,0.00,237,Wunderground v.1.15,2013-07-31 21:19:00,
2013-07-31 16:24:00,76.7,65.3,29.95,WNW,295,6.0,10.0,68,0.00,,,0.00,213,Wunderground v.1.15,2013-07-31 21:24:00,
2013-07-31 16:29:00,76.5,65.6,29.95,WNW,297,3.0,11.0,69,0.00,,,0.00,174,Wunderground v.1.15,2013-07-31 21:29:00,
2013-07-31 16:34:00,76.4,65.9,29.95,NW,319,8.0,14.0,70,0.00,,,0.00,90,Wunderground v.1.15,2013-07-31 21:34:00,
2013-07-31 16:39:00,76.1,65.2,29.95,NNW,327,6.0,15.0,69,0.00,,,0.00,88,Wunderground v.1.15,2013-07-31 21:39:00,
2013-07-31 16:44:00,75.7,64.0,29.95,NW,326,7.0,13.0,67,0.00,,,0.00,93,Wunderground v.1.15,2013-07-31 21:44:00,
2013-07-31 16:49:00,75.6,64.3,29.95,North,350,9.0,13.0,68,0.00,,,0.00,109,Wunderground v.1.15,2013-07-31 21:49:00,
2013-07-31 16:55:00,75.5,63.8,29.95,NW,305,6.0,15.0,67,0.00,,,0.00,204,Wunderground v.1.15,2013-07-31 21:55:00,
2013-07-31 17:00:00,75.5,64.2,29.95,WNW,294,8.0,8.0,68,0.00,,,0.00,202,Wunderground v.1.15,2013-07-31 22:00:00,
2013-07-31 17:05:00,75.5,64.6,29.96,NNE,26,7.0,12.0,69,0.00,,,0.00,100,Wunderground v.1.15,2013-07-31 22:05:00,
2013-07-31 17:10:00,74.5,61.1,29.96,North,351,5.0,7.0,63,0.00,,,0.00,227,Wunderground v.1.15,2013-07-31 22:10:00,
2013-07-31 17:15:00,73.4,60.0,29.95,NNW,348,3.0,12.0,63,0.00,,,0.00,243,Wunderground v.1.15,2013-07-31 22:15:00,
2013-07-31 17:20:00,72.7,60.3,29.95,NNW,339,3.0,4.0,65,0.00,,,0.00,202,Wunderground v.1.15,2013-07-31 22:20:00,
2013-07-31 17:25:00,72.3,60.3,29.95,North,351,1.0,9.0,66,0.00,,,0.00,234,Wunderground v.1.15,2013-07-31 22:25:00,
2013-07-31 17:30:00,72.4,60.4,29.95,North,355,3.0,3.0,66,0.00,,,0.00,650,Wunderground v.1.15,2013-07-31 22:30:00,
2013-07-31 17:35:00,73.0,60.5,29.95,NW,320,8.0,12.0,65,0.00,,,0.00,645,Wunderground v.1.15,2013-07-31 22:35:00,
2013-07-31 17:40:00,73.4,60.9,29.95,NE,42,4.0,8.0,65,0.00,,,0.00,373,Wunderground v.1.15,2013-07-31 22:40:00,
2013-07-31 17:45:00,73.3,60.8,29.95,NNE,19,2.0,9.0,65,0.00,,,0.00,496,Wunderground v.1.15,2013-07-31 22:45:00,
2013-07-31 17:50:00,73.4,60.9,29.95,NW,322,1.0,3.0,65,0.00,,,0.00,427,Wunderground v.1.15,2013-07-31 22:50:00,
2013-07-31 17:55:00,73.5,61.4,29.94,North,351,2.0,10.0,66,0.00,,,0.00,163,Wunderground v.1.15,2013-07-31 22:55:00,
2013-07-31 18:00:00,73.4,61.3,29.94,North,355,0.0,4.0,66,0.00,,,0.00,436,Wunderground v.1.15,2013-07-31 23:00:00,
2013-07-31 18:05:00,73.4,61.8,29.94,NNW,336,2.0,7.0,67,0.00,,,0.00,304,Wunderground v.1.15,2013-07-31 23:05:00,
2013-07-31 18:10:00,73.4,61.3,29.94,NW,314,6.0,7.0,66,0.00,,,0.00,248,Wunderground v.1.15,2013-07-31 23:10:00,
2013-07-31 18:15:00,73.2,62.0,29.94,WNW,302,1.0,7.0,68,0.00,,,0.00,334,Wunderground v.1.15,2013-07-31 23:15:00,
2013-07-31 18:20:00,73.0,61.8,29.94,NW,306,3.0,3.0,68,0.00,,,0.00,77,Wunderground v.1.15,2013-07-31 23:20:00,
2013-07-31 18:25:00,72.8,61.6,29.94,NW,312,2.0,8.0,68,0.00,,,0.00,125,Wunderground v.1.15,2013-07-31 23:25:00,
2013-07-31 18:30:00,72.5,62.2,29.95,NW,320,2.0,3.0,70,0.00,,,0.00,221,Wunderground v.1.15,2013-07-31 23:30:00,
2013-07-31 18:35:00,72.3,62.0,29.95,NNW,343,6.0,12.0,70,0.00,,,0.00,338,Wunderground v.1.15,2013-07-31 23:35:00,
2013-07-31 18:40:00,72.4,62.5,29.95,NW,310,6.0,6.0,71,0.00,,,0.00,313,Wunderground v.1.15,2013-07-31 23:40:00,
2013-07-31 18:45:00,72.5,61.7,29.95,NW,316,9.0,11.0,69,0.00,,,0.00,299,Wunderground v.1.15,2013-07-31 23:45:00,
2013-07-31 18:50:00,72.5,61.7,29.94,WNW,299,4.0,6.0,69,0.00,,,0.00,232,Wunderground v.1.15,2013-07-31 23:50:00,
2013-07-31 18:55:00,72.5,61.7,29.94,WNW,292,7.0,11.0,69,0.00,,,0.00,181,Wunderground v.1.15,2013-07-31 23:55:00,
2013-07-31 19:00:00,72.4,62.1,29.95,NW,311,3.0,5.0,70,0.00,,,0.00,149,Wunderground v.1.15,2013-08-01 00:00:00,
2013-07-31 19:05:00,72.3,62.0,29.95,NW,318,7.0,10.0,70,0.00,,,0.00,132,Wunderground v.1.15,2013-08-01 00:05:00,
2013-07-31 19:10:00,72.2,61.9,29.94,NW,308,4.0,7.0,70,0.00,,,0.00,113,Wunderground v.1.15,2013-08-01 00:10:00,
2013-07-31 19:15:00,72.2,61.9,29.94,NW,320,4.0,12.0,70,0.00,,,0.00,102,Wunderground v.1.15,2013-08-01 00:15:00,
2013-07-31 19:20:00,72.1,62.2,29.94,NW,307,4.0,6.0,71,0.00,,,0.00,84,Wunderground v.1.15,2013-08-01 00:20:00,
2013-07-31 19:25:00,72.0,62.1,29.94,WNW,296,2.0,6.0,71,0.00,,,0.00,70,Wunderground v.1.15,2013-08-01 00:25:00,
2013-07-31 19:30:00,72.0,62.1,29.94,WNW,297,1.0,5.0,71,0.00,,,0.00,58,Wunderground v.1.15,2013-08-01 00:30:00,
2013-07-31 19:35:00,72.0,62.5,29.94,WNW,297,1.0,5.0,72,0.00,,,0.00,46,Wunderground v.1.15,2013-08-01 00:35:00,
2013-07-31 19:40:00,71.8,62.3,29.94,WNW,297,2.0,4.0,72,0.00,,,0.00,35,Wunderground v.1.15,2013-08-01 00:40:00,
2013-07-31 19:45:00,71.6,62.1,29.94,WNW,297,0.0,5.0,72,0.00,,,0.00,28,Wunderground v.1.15,2013-08-01 00:45:00,
2013-07-31 19:50:00,71.5,62.4,29.95,WNW,297,0.0,1.0,73,0.00,,,0.00,21,Wunderground v.1.15,2013-08-01 00:50:00,
2013-07-31 19:55:00,71.3,62.2,29.95,WNW,294,0.0,3.0,73,0.00,,,0.00,18,Wunderground v.1.15,2013-08-01 00:55:00,
2013-07-31 20:00:00,70.9,62.2,29.95,WNW,294,0.0,0.0,74,0.00,,,0.00,14,Wunderground v.1.15,2013-08-01 01:00:00,
2013-07-31 20:05:00,70.6,62.3,29.95,WNW,294,0.0,2.0,75,0.00,,,0.00,12,Wunderground v.1.15,2013-08-01 01:05:00,
2013-07-31 20:10:00,70.3,62.0,29.95,WNW,294,0.0,0.0,75,0.00,,,0.00,9,Wunderground v.1.15,2013-08-01 01:10:00,
2013-07-31 20:15:00,69.9,62.0,29.95,WNW,294,0.0,0.0,76,0.00,,,0.00,5,Wunderground v.1.15,2013-08-01 01:15:00,
2013-07-31 20:20:00,69.5,61.6,29.95,WNW,294,0.0,0.0,76,0.00,,,0.00,0,Wunderground v.1.15,2013-08-01 01:20:00,
2013-07-31 20:25:00,69.0,61.5,29.95,WNW,294,2.0,2.0,77,0.00,,,0.00,0,Wunderground v.1.15,2013-08-01 01:25:00,
2013-07-31 20:30:00,68.5,61.4,29.95,WNW,294,2.0,2.0,78,0.00,,,0.00,0,Wunderground v.1.15,2013-08-01 01:30:00,
2013-07-31 20:36:00,68.1,61.3,29.95,WNW,294,0.0,3.0,79,0.00,,,0.00,0,Wunderground v.1.15,2013-08-01 01:36:00,
2013-07-31 20:41:00,67.7,61.3,29.95,WNW,294,0.0,0.0,80,0.00,,,0.00,0,Wunderground v.1.15,2013-08-01 01:41:00,
2013-07-31 20:46:00,67.4,61.4,29.95,WNW,294,0.0,0.0,81,0.00,,,0.00,0,Wunderground v.1.15,2013-08-01 01:46:00,
2013-07-31 20:51:00,67.0,61.0,29.95,WNW,294,0.0,0.0,81,0.00,,,0.00,0,Wunderground v.1.15,2013-08-01 01:51:00,
2013-07-31 20:56:00,66.6,60.9,29.95,WNW,294,0.0,0.0,82,0.00,,,0.00,0,Wunderground v.1.15,2013-08-01 01:56:00,
2013-07-31 21:02:00,66.1,60.8,29.95,WNW,294,0.0,2.0,83,0.00,,,0.00,0,Wunderground v.1.15,2013-08-01 02:02:00,
2013-07-31 21:07:00,65.8,60.8,29.95,WNW,294,0.0,2.0,84,0.00,,,0.00,0,Wunderground v.1.15,2013-08-01 02:07:00,
2013-07-31 21:12:00,65.4,60.4,29.95,WNW,294,0.0,1.0,84,0.00,,,0.00,0,Wunderground v.1.15,2013-08-01 02:12:00,
2013-07-31 21:17:00,65.0,60.4,29.95,WNW,294,0.0,2.0,85,0.00,,,0.00,0,Wunderground v.1.15,2013-08-01 02:17:00,
2013-07-31 21:22:00,64.7,60.4,29.95,WNW,294,0.0,0.0,86,0.00,,,0.00,0,Wunderground v.1.15,2013-08-01 02:22:00,
2013-07-31 21:27:00,64.3,60.0,29.95,WNW,294,0.0,0.0,86,0.00,,,0.00,0,Wunderground v.1.15,2013-08-01 02:27:00,
2013-07-31 21:32:00,63.8,59.2,29.95,WNW,294,0.0,0.0,85,0.00,,,0.00,0,Wunderground v.1.15,2013-08-01 02:32:00,
2013-07-31 21:38:00,63.3,59.0,29.96,WNW,294,0.0,0.0,86,0.00,,,0.00,0,Wunderground v.1.15,2013-08-01 02:38:00,
2013-07-31 21:43:00,63.0,59.1,29.96,WNW,294,0.0,0.0,87,0.00,,,0.00,0,Wunderground v.1.15,2013-08-01 02:43:00,
2013-07-31 21:48:00,62.6,58.7,29.96,WNW,294,0.0,0.0,87,0.00,,,0.00,0,Wunderground v.1.15,2013-08-01 02:48:00,
2013-07-31 21:53:00,62.2,58.6,29.96,WNW,294,0.0,0.0,88,0.00,,,0.00,0,Wunderground v.1.15,2013-08-01 02:53:00,
2013-07-31 21:58:00,61.8,58.2,29.96,WNW,294,0.0,0.0,88,0.00,,,0.00,0,Wunderground v.1.15,2013-08-01 02:58:00,
2013-07-31 22:03:00,61.6,58.3,29.96,WNW,294,0.0,0.0,89,0.00,,,0.00,0,Wunderground v.1.15,2013-08-01 03:03:00,
2013-07-31 22:08:00,61.5,58.5,29.96,WNW,294,0.0,0.0,90,0.00,,,0.00,0,Wunderground v.1.15,2013-08-01 03:08:00,
2013-07-31 22:13:00,61.4,58.4,29.96,WNW,294,0.0,0.0,90,0.00,,,0.00,0,Wunderground v.1.15,2013-08-01 03:13:00,
2013-07-31 22:18:00,61.2,58.2,29.96,WNW,294,0.0,0.0,90,0.00,,,0.00,0,Wunderground v.1.15,2013-08-01 03:18:00,
2013-07-31 22:23:00,61.0,58.0,29.96,WNW,294,0.0,0.0,90,0.00,,,0.00,0,Wunderground v.1.15,2013-08-01 03:23:00,
2013-07-31 22:28:00,60.8,57.8,29.96,WNW,294,0.0,0.0,90,0.00,,,0.00,0,Wunderground v.1.15,2013-08-01 03:28:00,
2013-07-31 22:33:00,60.7,58.1,29.96,WNW,294,0.0,0.0,91,0.00,,,0.00,0,Wunderground v.1.15,2013-08-01 03:33:00,
2013-07-31 22:38:00,60.6,58.0,29.96,WNW,294,0.0,0.0,91,0.00,,,0.00,0,Wunderground v.1.15,2013-08-01 03:38:00,
2013-07-31 22:43:00,60.4,57.8,29.96,WNW,294,0.0,0.0,91,0.00,,,0.00,0,Wunderground v.1.15,2013-08-01 03:43:00,
2013-07-31 22:48:00,60.3,57.7,29.96,WNW,294,0.0,0.0,91,0.00,,,0.00,0,Wunderground v.1.15,2013-08-01 03:48:00,
2013-07-31 22:53:00,60.1,57.5,29.96,WNW,294,0.0,0.0,91,0.00,,,0.00,0,Wunderground v.1.15,2013-08-01 03:53:00,
2013-07-31 22:58:00,60.0,57.4,29.96,WNW,294,0.0,0.0,91,0.00,,,0.00,0,Wunderground v.1.15,2013-08-01 03:58:00,
2013-07-31 23:01:00,59.9,57.3,29.96,WNW,294,0.0,0.0,91,0.00,,,0.00,0,Wunderground v.1.15,2013-08-01 04:01:00,
2013-07-31 23:02:00,59.9,57.3,29.95,WNW,294,0.0,0.0,91,0.00,,,0.00,0,Wunderground v.1.15,2013-08-01 04:02:00,
2013-07-31 23:07:00,60.0,58.0,29.96,WNW,294,0.0,0.0,93,0.00,,,0.00,0,Wunderground v.1.15,2013-08-01 04:07:00,
2013-07-31 23:12:00,60.1,58.1,29.96,WNW,294,0.0,1.0,93,0.00,,,0.00,0,Wunderground v.1.15,2013-08-01 04:12:00,
2013-07-31 23:18:00,60.1,58.1,29.96,WNW,294,0.0,1.0,93,0.00,,,0.00,0,Wunderground v.1.15,2013-08-01 04:18:00,
2013-07-31 23:23:00,60.0,58.0,29.95,WNW,294,0.0,0.0,93,0.00,,,0.00,0,Wunderground v.1.15,2013-08-01 04:23:00,
2013-07-31 23:28:00,59.9,57.9,29.96,WNW,294,0.0,0.0,93,0.00,,,0.00,0,Wunderground v.1.15,2013-08-01 04:28:00,
2013-07-31 23:33:00,59.7,57.7,29.96,WNW,294,0.0,0.0,93,0.00,,,0.00,0,Wunderground v.1.15,2013-08-01 04:33:00,
2013-07-31 23:38:00,59.6,57.6,29.96,WNW,294,0.0,0.0,93,0.00,,,0.00,0,Wunderground v.1.15,2013-08-01 04:38:00,
2013-07-31 23:43:00,59.5,57.5,29.96,WNW,294,0.0,0.0,93,0.00,,,0.00,0,Wunderground v.1.15,2013-08-01 04:43:00,
2013-07-31 23:48:00,59.3,57.3,29.96,WNW,294,0.0,0.0,93,0.00,,,0.00,0,Wunderground v.1.15,2013-08-01 04:48:00,
2013-07-31 23:53:00,59.2,57.2,29.96,WNW,294,0.0,0.0,93,0.00,,,0.00,0,Wunderground v.1.15,2013-08-01 04:53:00,
2013-07-31 23:58:00,59.1,57.1,29.96,WNW,294,0.0,0.0,93,0.00,,,0.00,0,Wunderground v.1.15,2013-08-01 04:58:00,